Volver al catálogo

TIROS 3

ActivoMeteoLEO
NORAD 162·PAYLOAD·🇺🇸 United States

Lanzado Jul 12, 1961 desde Cape Canaveral Space Force Station

Loading…

Próximos Pases (próximas 24 horas)

TLE

ActualizadoSource: Space-Track

Época: Sep 7, 2026, 07:11 UTC

1 00162U 61017A   26250.29944231 -.00000061  00000-0  29122-4 0  9991
2 00162  47.9011 355.4484 0043984 320.3821  39.3861 14.45416802403656

Sigue TIROS 3 en tiempo real con AllMySat

Download on the App Store